Regional Weather Roundup
Issued by NWS Grand Forks, ND

Home | Current Version | Previous Version | Text Only | Print | Product List | Glossary Off
Versions: 1 2 3 4 5 6 7 8 9 10 11 12 13 14 15 16 17 18 19 20 21 22 23 24 25 26 27 28 29 30 31 32 33 34 35 36 37 38 39 40 41 42 43 44 45 46 47 48 49 50

000
ASUS43 KFGF 230010
RWRFGF
PRAIRIE TO PINES  WEATHER ROUNDUP
NATIONAL WEATHER SERVICE EASTERN NORTH DAKOTA/GRAND FORKS ND
700 PM CDT TUE APR 22 2014

 **SATELLITE DATA USED TO AUGMENT SKY COVER AT AUTOMATED STATIONS**
 *****  WEATHER ACROSS EASTERN NORTH DAKOTA  *****

CITY           SKY/WX    TMP DP  RH WIND       PRES   REMARKS
GRAND FORKS    MOSUNNY   61  30  31 SE10      29.98F
6HR MIN TEMP:  56; 6HR MAX TEMP:  63;

GRAND FRKS AFB SUNNY     60  32  34 SE13      29.98F
GRAND FRKS NWS   N/A     59 N/A N/A E15         N/A
DEVILS LAKE    MOSUNNY   57  28  33 SE14      29.92F
6HR MIN TEMP:  57; 6HR MAX TEMP:  63;

FARGO          PTSUNNY   61  34  36 SE13      29.98F
WAHPETON ARPT  PTCLDY    61  27  27 SE10      29.99S
$$

 ***** WEATHER ACROSS CENTRAL AND WESTERN NORTH DAKOTA  *****

CITY           SKY/WX    TMP DP  RH WIND       PRES   REMARKS
BISMARCK       MOSUNNY   66  31  27 SE24G32   29.80F
6HR MIN TEMP:  66; 6HR MAX TEMP:  72;

MINOT          PTSUNNY   64  33  31 E15       29.80F
6HR MIN TEMP:  63; 6HR MAX TEMP:  69;

JAMESTOWN      SUNNY     61  33  35 SE21      29.90F
6HR MIN TEMP:  61; 6HR MAX TEMP:  66;

MINOT AFB      PTSUNNY   63  35  34 SE21      29.80F
GARRISON         N/A     65  32  29 SE22G30   29.77F
WILLISTON      PTSUNNY   70  30  22 SE21G33   29.66F
6HR MIN TEMP:  66; 6HR MAX TEMP:  71;

DICKINSON      SUNNY     65  30  27 SE26G36   29.68F
6HR MIN TEMP:  65; 6HR MAX TEMP:  71;

HETTINGER      CLOUDY    65  32  29 SE24G37   29.68F
6HR MIN TEMP:  64; 6HR MAX TEMP:  68;

$$

 *****  OTHER AIRPORT OBSERVATIONS IN OUR AREA  *****

CITY           SKY/WX    TMP DP  RH WIND       PRES   REMARKS
WALHALLA         N/A     57  34  41 SE13      29.98F
GRAFTON AIRPOR FAIR      57  32  38 SE10      29.99F
VALLEY CITY AR FAIR      59  30  33 SE16G26   29.94F
CANDO          FAIR      59  28  31 SE16G22   29.92F
CAVALIER APRT  FAIR      57  36  44 SE8G16    29.99S
GWINNER        PTCLDY    61  34  36 E16       29.96S
SHEYENNE NWR     N/A     62  29  28 SE10      29.95S
ROLLA          FAIR      57  30  35 SE17      29.93S
 ***** THE ABOVE OBSERVATIONS ARE NON NWS ARE NOT QUALITY
       CONTROLLED AND MAY MIS-REPORT RAIN FOR SNOW...
$$

  *****  WEATHER ACROSS NORTHERN MINNESOTA  *****

CITY           SKY/WX    TMP DP  RH WIND       PRES   REMARKS
FLAG ISLAND    SUNNY     37  25  60 S3        30.06F
WARROAD        SUNNY     45  25  45 E9        30.06F
ROSEAU         SUNNY     52  28  40 E10       30.04F
HALLOCK        CLOUDY    57  34  41 E12       29.99F
THF RVR FALLS  SUNNY     55  30  38 E9        30.02F
6HR MIN TEMP:  50; 6HR MAX TEMP:  57;

BAUDETTE       SUNNY     51  21  30 NE6       30.06F
6HR MIN TEMP:  46; 6HR MAX TEMP:  52;

WASKISH        SUNNY     54  25  32 NE8       30.04F
CROOKSTON      SUNNY     59  30  33 SE10      30.01S
$$
  *****  WEATHER ACROSS CENTRAL AND WEST MINNESOTA  *****

CITY           SKY/WX    TMP DP  RH WIND       PRES   REMARKS
FOSSTON        SUNNY     57  27  30 NE6       30.02F
BEMIDJI        SUNNY     52  22  31 NE3       30.03F
PARK RAPIDS    SUNNY     56  25  30 E6        30.02S
6HR MIN TEMP:  52; 6HR MAX TEMP:  59;

ELBOW LAKE     FAIR      58  32  36 E9        30.01S
6HR MIN TEMP:  55; 6HR MAX TEMP:  60;

WADENA         SUNNY     57  28  33 E5        30.02S
DETROIT LAKES  SUNNY     55  30  38 S6        30.02S
MOORHEAD       MOSUNNY   61  25  25 SE8       30.00S
FERGUS FALLS   MOSUNNY   59  23  25 SE8       29.97F
MORRIS MN      SUNNY     61  30  31 SE10      30.00S
STAPLES        SUNNY     55  25  30 E6        30.03R
$$
  *****  WEATHER ELSEWHERE ACROSS MINNESOTA  *****

CITY           SKY/WX    TMP DP  RH WIND       PRES   REMARKS
DULUTH         SUNNY     51  20  29 NE7       30.04F
6HR MIN TEMP:  47; 6HR MAX TEMP:  53;

INTRNTL FALLS  SUNNY     50  20  30 NE6       30.06F
6HR MIN TEMP:  47; 6HR MAX TEMP:  52;

ELY            SUNNY     48  18  29 CALM      30.05S
CLOQUET        SUNNY     52  16  24 N3        30.04F
WHEATON        SUNNY     63  37  39 SE15      30.00F
BRAINERD       SUNNY     60  23  24 N5        30.04F
6HR MIN TEMP:  55; 6HR MAX TEMP:  60;

HIBBING        SUNNY     53  16  23 N9        30.04F
6HR MIN TEMP:  48; 6HR MAX TEMP:  55;

ALEXANDRIA     MOSUNNY   57  30  35 SE5       30.03S
6HR MIN TEMP:  52; 6HR MAX TEMP:  59;

SAINT CLOUD    MOSUNNY   58  25  28 N7        30.04S
6HR MIN TEMP:  54; 6HR MAX TEMP:  60;

MINNEAPOLIS    PTSUNNY   55  26  32 NE10      30.05S
6HR MIN TEMP:  54; 6HR MAX TEMP:  59;

$$

  *****  WEATHER ACROSS SOUTH DAKOTA  *****

CITY           SKY/WX    TMP DP  RH WIND       PRES   REMARKS
SIOUX FALLS    PTSUNNY   63  31  30 S17       29.95F
6HR MIN TEMP:  61; 6HR MAX TEMP:  66; 6HR PCP: TRACE;

BROOKINGS      NOT AVBL
WATERTOWN      CLOUDY    62  31  31 SE16      29.93F
6HR MIN TEMP:  59; 6HR MAX TEMP:  65;

HURON          CLOUDY    63  29  27 SE12G25   29.88F
6HR MIN TEMP:  63; 6HR MAX TEMP:  67;

SISSETON         N/A     60  32  34 SE16      29.95F
ABERDEEN       PTSUNNY   63  31  30 SE16G24   29.90F
6HR MIN TEMP:  62; 6HR MAX TEMP:  67;

MITCHELL       MOSUNNY   65  30  27 SE26G35   29.89F
PIERRE         CLOUDY    67  33  28 SE31G39   29.70F
6HR MIN TEMP:  67; 6HR MAX TEMP:  74;

MOBRIDGE       CLOUDY    64  30  27 E28G35    29.75F
RAPID CITY     CLOUDY    70  46  42 S12       29.61S
6HR MIN TEMP:  68; 6HR MAX TEMP:  76;

$$

  *****  SOME WEATHER IN NEARBY STATES *****

CITY           SKY/WX    TMP DP  RH WIND       PRES   REMARKS
GLASGOW MT     MOSUNNY   75  32  20 SE25G35   29.48F
6HR MIN TEMP:  66; 6HR MAX TEMP:  76;

GREAT FALLS MT RAIN      48  45  89 W22G30    29.50R FOG
6HR MIN TEMP:  48; 6HR MAX TEMP:  70; 6HR PCP:  0.06;

CHEYENNE WY    CLOUDY    64  35  34 SE14      29.78F
6HR MIN TEMP:  63; 6HR MAX TEMP:  73;

SCOTTSBLUFF NE LGT RAIN  72  42  34 NW20G29   29.68R
6HR MIN TEMP:  72; 6HR MAX TEMP:  84; 6HR PCP: TRACE;

OMAHA NE       CLOUDY    67  32  27 E14       29.98F
6HR MIN TEMP:  62; 6HR MAX TEMP:  69;

DES MOINES IA  MOSUNNY   65  30  27 NE5       30.02S
6HR MIN TEMP:  62; 6HR MAX TEMP:  67;

DAVENPORT IA   CLEAR     59  27  29 N10       30.00S
6HR MIN TEMP:  58; 6HR MAX TEMP:  64;

CHICAGO IL     PTCLDY    47  28  47 E10       30.01R
6HR MIN TEMP:  46; 6HR MAX TEMP:  61;

EAU CLAIRE WI  PTCLDY    54  21  27 NE10      30.04S
6HR MIN TEMP:  52; 6HR MAX TEMP:  57;

LA CROSSE WI   PTCLDY    56  22  26 N12       30.03R
6HR MIN TEMP:  55; 6HR MAX TEMP:  61;

$$

  *****  SOME NATIONAL WEATHER *****

CITY           SKY/WX    TMP DP  RH WIND       PRES   REMARKS
LA GUARDIA NY  CLOUDY    63  49  60 W3        29.53R
6HR MIN TEMP:  61; 6HR MAX TEMP:  66; 6HR PCP: TRACE;

RALEIGH NC     CLOUDY    71  51  49 W7        29.68R
6HR MIN TEMP:  71; 6HR MAX TEMP:  82; 6HR PCP: TRACE;

ATLANTA GA     PTCLDY    65  59  81 W7        29.85R
6HR MIN TEMP:  64; 6HR MAX TEMP:  68; 6HR PCP:  0.02;

NEW ORLEANS LA PTCLDY    75  66  73 NW3       29.88F
6HR MIN TEMP:  70; 6HR MAX TEMP:  78; 6HR PCP: TRACE;

OKLAHOMA CITY  MOSUNNY   79  35  20 E6        29.94F
6HR MIN TEMP:  75; 6HR MAX TEMP:  81;

ALBUQUERQUE NM PTSUNNY   78  31  17 S25G37    29.90F
6HR MIN TEMP:  76; 6HR MAX TEMP:  81;

SALT LAKE CITY BLWGDUST  56  38  50 W35G48    29.59R VSB 1
6HR MIN TEMP:  60; 6HR MAX TEMP:  77; 6HR PCP: TRACE;

LOS ANGELES CA MOSUNNY   65  49  56 SW13      29.91F
6HR MIN TEMP:  63; 6HR MAX TEMP:  67;




USA.gov is the U.S. government's official web portal to all federal, state and local government web resources and services.